Weather Roundup
Issued by NWS

Home | Current Version | Previous Version | Text Only | Print | Product List | Glossary On
Versions: 1 2 3 4 5 6 7 8 9 10 11 12 13 14 15 16 17 18 19 20 21 22 23 24 25 26 27 28 29 30 31 32 33 34 35 36 37 38 39 40 41 42 43 44 45 46 47 48 49 50
000
NZUS93 KARX 160310
HRRWXR

CURRENT HOURLY OBSERVATIONS ACROSS
MUCH OF THE UPPER MISSISSIPPI VALLEY
NATIONAL WEATHER SERVICE LA CROSSE WI
1000 PM CDT TUE APR 15 2014


...SOUTHEAST MINNESOTA...


CITY           SKY/WX    TMP DP  RH WIND       PRES   REMARKS
ROCHESTER      MOCLDY    30  20  66 SE5       30.09R WCI  25
ROCHESTER/MAYO CLOUDY    32  13  46 E7        30.10R WCI  26
WINONA         PTCLDY    34  19  55 CALM      30.14R
AUSTIN         CLOUDY    30  23  74 SE7       30.06F WCI  23
ALBERT LEA     CLOUDY    34  19  55 SE7       30.04F WCI  28
DODGE CENTER   PTCLDY    34  25  69 SE7       30.07S WCI  28
PRESTON        PTCLDY    31  18  59 CALM      30.10R
OWATONNA       MOCLDY    34  19  55 E7        30.05F WCI  28
FARIBAULT      CLOUDY    36  10  35 E7        30.06F WCI  30
$$

...ELSEWHERE IN MINNESOTA...


CITY           SKY/WX    TMP DP  RH WIND       PRES   REMARKS
MINNEAPOLIS    CLOUDY    34   9  35 SE7       30.08S WCI  28
INTNL FALLS    CLEAR     19   9  65 CALM      30.08R
DULUTH         CLEAR     26   5  40 S3        30.06R
RED WING       CLOUDY    36  12  38 S3        30.11R
REDWOOD FALLS  MOCLDY    36  14  40 E13       29.96S WCI  27
MANKATO        CLOUDY    34  16  47 SE14      30.03F WCI  24
WORTHINGTON    PTCLDY    36  19  51 SE18G25   29.89F WCI  25
FAIRMONT       MOCLDY    34  21  60 E16       29.99F WCI  23
$$

...SOUTHWEST WISCONSIN...


CITY           SKY/WX    TMP DP  RH WIND       PRES   REMARKS
LA CROSSE      CLOUDY    33  16  49 S5        30.14R WCI  29
PRAIRIE DU CHI CLEAR     31  21  66 E3        30.16R
BOSCOBEL       MOCLDY    29  19  66 CALM      30.16R
LONE ROCK      CLOUDY    30  24  78 CALM      30.16R
PLATTEVILLE    CLEAR     32  18  57 SE3       30.16R
FORT MC COY    PTCLDY    26  19  72 CALM      30.15R
CAMP DOUGLAS   MOCLDY    25  19  80 SE3       30.14R
VIROQUA        CLOUDY    31  18  58 S3        30.12R
WIS DELLS      CLOUDY    28  20  71 E3        30.14S
$$

...ELSEWHERE IN WISCONSIN...


CITY           SKY/WX    TMP DP  RH WIND       PRES   REMARKS
MILWAUKEE      PTCLDY    28  20  71 SE5       30.20R WCI  23
MADISON        CLEAR     29  17  61 CALM      30.16R
GREEN BAY      CLEAR     29  19  66 SW3       30.18R
EAU CLAIRE     CLOUDY    31  10  41 CALM      30.11R
BLACK RVR FLS  FAIR      24  19  83 CALM      30.13R
MEDFORD        CLEAR     26  15  64 S3        30.09S
WAUSAU         CLEAR     25  13  60 S3        30.10S
WIS RAPIDS     CLEAR     24  16  71 S5        30.15R WCI  18
MARSHFIELD     MOCLDY    27  16  63 SE3       30.11R
RICE LAKE      NOT AVBL
$$

...NORTHEAST IOWA...


CITY           SKY/WX    TMP DP  RH WIND       PRES   REMARKS
WATERLOO       CLEAR     28  19  69 E9        30.10R WCI  19
DUBUQUE        CLEAR     30  20  66 CALM      30.14R
DECORAH        CLOUDY    32  21  64 S3        30.11R
MASON CITY     PTCLDY    32  22  66 SE12      30.05F WCI  23
CHARLES CITY   MOCLDY    30  21  69 E7        30.09F WCI  23
OELWEIN        CLEAR    N/A N/A N/A E7        30.12S
$$

...ELSEWHERE IN IOWA...


CITY           SKY/WX    TMP DP  RH WIND       PRES   REMARKS
DES MOINES     PTCLDY    42  22  44 SE13      30.02F
IOWA CITY      CLEAR     34  17  50 E5        30.14S WCI  30
FORT DODGE     PTCLDY    36  25  64 SE15G21   29.99S WCI  26
MARSHALLTOWN   PTCLDY    33  25  72 E10       30.05F WCI  25
CEDAR RAPIDS   CLEAR     29  18  63 E7        30.11R WCI  22
$$

...NORTHERN ILLINOIS...


CITY           SKY/WX    TMP DP  RH WIND       PRES   REMARKS
CHICAGO-OHARE  CLEAR     31  19  61 S5        30.19R WCI  26
DUPAGE         CLEAR     29  22  75 SE5       30.18S WCI  24
CHICAGO-MIDWAY CLEAR     35  20  54 S5        30.20R WCI  31
MOLINE         CLEAR     29  18  63 CALM      30.16R
ROCKFORD       CLEAR     32  20  61 CALM      30.19R
STERLING       CLEAR     28  18  64 S3        30.17R
PEORIA         CLEAR     35  19  52 CALM      30.18S
$$

NOTE: "FAIR" INDICATES FEW OR NO CLOUDS BELOW 12,000 FEET WITH NO
SIGNIFICANT WEATHER AND/OR OBSTRUCTIONS TO VISIBILITY. WIND
SPEEDS ARE IN MILES-PER-HOUR.



USA.gov is the U.S. government's official web portal to all federal, state and local government web resources and services.